Tracking 27420 objects as of 28-May-2023
HD Live streaming from Space Station
objects crossing your sky now

CZ-4 DEB

Track CZ-4 DEB now!
10-day predictions


NORAD ID: 20888
Int'l Code: 1990-081AY
Perigee: 685.2 km
Apogee: 982.1 km
Inclination: 99.2 °
Period: 101.4 minutes
Semi major axis: 7204 km
RCS: 0.1391 m2 (medium)
Launch date: September 3, 1990
Source: People's Republic of China (PRC)
Launch site: Taiyaun Space Center, China (TSC)

Note: This is SATELLITE DEBRIS
Your satellite tracking list
Your tracking list is empty




NASA's NSSDC Master Catalog

Two Line Element Set (TLE):
1 20888U 90081AY  23147.88073861  .00001979  00000-0  77653-3 0  9999
2 20888  99.1873 299.7093 0206076 193.8550 165.6917 14.19656339668198
Source of the keplerian elements: AFSPC